Location: Unspecified
(0.0000°N, 0.0000°E)
Time: 00:16:27
(UTC+00:00)

Vanguard 2 - Visible Passes

Search period start: 29 August 2015 00:00
Search period end: 08 September 2015 00:00
Orbit: 554 x 2942 km, 32.9° (Epoch: 27 August)

Date Brightness Start Highest point End Pass type
(mag) Time Alt. Az. Time Alt. Az. Time Alt. Az.
29 Aug 11.1 02:32:32 28° SSE 02:32:32 28° SSE 02:41:06 10° SE visible
29 Aug 11.3 04:33:59 14° SW 04:42:01 20° SSW 04:53:03 10° SSE visible
30 Aug 11.1 02:50:00 27° S 02:50:00 27° S 02:59:36 10° SSE visible
30 Aug 11.4 04:52:24 10° SW 05:02:31 17° S 05:12:22 10° SSE visible
31 Aug 11.1 03:07:25 24° S 03:07:25 24° S 03:18:09 10° SSE visible
31 Aug 11.5 05:13:39 10° SW 05:23:09 16° S 05:32:23 10° SSE visible
01 Sep 11.7 01:23:19 12° SE 01:23:19 12° SE 01:24:27 10° SE visible
01 Sep 11.2 03:24:46 20° SSW 03:25:39 20° SSW 03:36:55 10° SSE visible
01 Sep 11.6 05:34:11 10° SSW 05:43:48 16° S 05:53:11 10° SE visible
02 Sep 11.6 01:40:38 14° SSE 01:40:38 14° SSE 01:42:55 10° SSE visible
02 Sep 11.3 03:42:05 16° SSW 03:46:04 17° S 03:56:07 10° SSE visible
03 Sep 11.6 01:57:57 15° SSE 01:57:57 15° SSE 02:01:22 10° SSE visible
03 Sep 11.4 03:59:23 12° SSW 04:06:39 16° S 04:16:00 10° SSE visible
04 Sep 11.5 02:15:13 16° SSE 02:15:13 16° SSE 02:19:56 10° SSE visible
04 Sep 11.5 04:18:24 10° SSW 04:27:16 16° S 04:36:46 10° SE visible
05 Sep 11.5 02:32:30 16° S 02:32:30 16° S 02:38:50 10° SSE visible
05 Sep 11.6 04:38:08 10° SSW 04:47:51 17° S 04:58:16 10° SE visible
05 Sep 9.9 20:09:49 10° NNW 20:10:05 11° NNW 20:10:05 11° NNW visible
06 Sep 11.4 02:49:46 14° S 02:50:27 14° S 02:58:22 10° SSE visible
06 Sep 11.6 04:57:14 10° SSW 05:08:18 20° SSE 05:19:57 10° ESE visible
06 Sep 10.1 20:27:39 10° NNW 20:27:46 11° NNW 20:27:46 11° NNW visible
07 Sep 11.5 03:07:02 13° S 03:10:57 14° S 03:18:55 10° SSE visible
07 Sep 11.6 05:15:56 10° SSW 05:28:33 24° SSE 05:41:23 10° ESE visible
